Skip Page Navigation
NASA JPL Caltech
NASA Logo - Jet Propulsion Laboratory + View the NASA Portal
+ Center for Near-Earth Object Studies
JPL Home Earth Solar System Stars & Galaxies Technology
JPL Solar System Dynamics
BODIES ORBITS EPHEMERIDES TOOLS PHYSICAL DATA DISCOVERY FAQ SITE MAP
IMPORTANT: The SSD Announcement email list is now available. Major changes are coming in the near future, including possible hostname and/or URL changes. To be notified of such changes, subscribe to this email list.

Please visit this page for more details.


JPL Small-Body Database Browser
Search: [ help ]  
344199 (2001 PF41)
Classification: Main-belt Asteroid          SPK-ID: 2344199
Ephemeris | Orbit Diagram | Orbital Elements | Mission Design | Physical Parameters | Discovery Circumstances | Close-Approach Data ]

[ show orbit diagram ]
Orbital Elements at Epoch 2458600.5 (2019-Apr-27.0) TDB
Reference: JPL 10 (heliocentric ecliptic J2000)
 Element Value Uncertainty (1-sigma)   Units 
e .2170384472420471 5.9026e-08  
a 2.331711292520964 1.1734e-08 au
q 1.825640294175467 1.3485e-07 au
i 6.892307107408184 5.7174e-06 deg
node 292.0050731549038 7.3209e-05 deg
peri 23.967270254969 7.6086e-05 deg
M 3.240444765090273 2.0624e-05 deg
tp 2458588.793886969418
(2019-Apr-15.29388697)
7.4458e-05 TDB
period 1300.500701758444
3.56
9.8166e-06
2.688e-08
d
yr
n .2768164596245383 2.0895e-09 deg/d
Q 2.83778229086646 1.428e-08 au
  Orbit Determination Parameters
   # obs. used (total)      193  
   data-arc span      6669 days (18.26 yr)  
   first obs. used      2001-08-11  
   last obs. used      2019-11-14  
   planetary ephem.      DE431  
   SB-pert. ephem.      SB431-N16  
   condition code      0  
   norm. resid. RMS      .48445  
   source      ORB  
   producer      Otto Matic  
   solution date      2019-Dec-04 22:56:03  

Additional Information
 Earth MOID = .813363 au 
 Jupiter MOID = 2.45633 au 
 T_jup = 3.529 
[ show covariance matrix ]

Ephemeris | Orbit Diagram | Orbital Elements | Mission Design | Physical Parameters | Discovery Circumstances | Close-Approach Data ]

Physical Parameter Table
Parameter Symbol Value Units Sigma Reference Notes
absolute magnitude H 17.1   n/a MPO446551  

344199 (2001 PF41)          Discovered 2001-Aug-11 by NEAT at Palomar
Reference: 20121128/Numbers.arcLast Updated: 2012-12-03

[ show close-approach data ]
Ephemeris | Orbit Diagram | Orbital Elements | Mission Design | Physical Parameters | Discovery Circumstances | Close-Approach Data ]
ABOUT SSD CREDITS/AWARDS PRIVACY/COPYRIGHT GLOSSARY LINKS
FirstGov 2019-Dec-10 22:14 UT
(server date/time)  
NASA Home Page
Site Manager:   Ryan S. Park
Webmaster  Alan B. Chamberlin